Location: Sweet Grass
(48.9965°N, 111.9649°W)
Time: 13:22:14
(UTC+00:00)

DX 1 - Pass Details

Date: 03 April 2023
Orbit: 615 x 625 km, 98.4° (Epoch: 29 May)

Event Time Altitude Azimuth Distance (km) Brightness Sun altitude
Rises 07:28:25 0° 359° (N) 2,899 ? -35.7°
Reaches altitude 10° 07:31:27 10° 336° (NNW) 1,988 ? -35.8°
Enters shadow 07:32:31 13° 322° (NW) 1,793 ? -35.8°
